ROMMA est une association bénévole à but non lucratif. Votre soutien est indispensable : ADHERER à ROMMA ou FAIRE un DON

Voiron - (38, Isère)

Voironnais (300 m)   Longitude: 05° 35' E   Latitude: 45° 23' N Station partenaire n°109
 

Détail journalier du     <<     >>

Température Precipitation Humidité Pression Vent Dir Rafale Dir. rafale Ensol.
Heure (°C) (mm) (%) (hPa) (km/h) (km/h) (min)
01:00 14.608710211SE5SE0
02:00 13.809010201NNO5NNO0
03:00 13.809010201SSE8SSE0
04:00 13.70911020000
05:00 13.809110192S6NO0
06:00 13.709110192NNO8NNO0
07:00 13.309110191SO5SO0
08:00 13.109110191O5O0
09:00 13.409110201NO5NO0
10:00 14.5088102003NO0
11:00 14.808710202S6SSO0
12:00 16.408110191S5S0
13:00 16.807910182S8SSE0
14:00 16.908010181SO6SO0
15:00 18.207210172SSO11SSO30
16:00 17.507610174SSE16SE0
17:00 17.207710172SSE10SSE60
18:00 16.608010171S5S0
19:00 15.6085101703S0
20:00 15.4085101703SO0
21:00 15.608610171SO10ESE0
22:00 15.408710172E11ENE0
23:00 15.208810173SE10N0
minuit 14.809110171SO6SO0

Graphique du 28-10-2019

 

Serveur OMMA